TSO876 HEGN-URSS

Flight info

Callsign TSO876
Flight time 2h 15m
Altitude 41000
Route SOLOX DCT SHM R650 NOVPA M690 ULINA M319 QTR01/N0483F400 L513 DAM/N0489F410 L513 MURAK/N0489F400 DCT LUBAM/N0488F410 W6 ALE B544 TUSYR/N0443F280 B36 GAZ/N0492F410 UW701 EZS UW88 ERN/N0432F270 T166 PIXAP/N0476F330 UW88 TBN/N0439F280 R114 TUDEK B950 KARAT
Aircraft B772/H-SDE2E3FGHIJ5LORVWXY/LB1D1

Departure

Time 2026-05-05 15:51
Airport Hurghada International Airport (HEGN)

Arrival

Time 2026-05-05 18:06
Airport Sochi International Airport (URSS)
Time Latitude Longitude Altitude Speed Heading
2026-05-05 15:32 27.18158 33.80553 66 ft 0 kts 75°
2026-05-05 15:43 27.18156 33.80544 66 ft 2 kts 75°
2026-05-05 15:43 27.18152 33.80528 66 ft 2 kts 76°
2026-05-05 15:44 27.18148 33.80511 66 ft 2 kts 76°
2026-05-05 15:44 27.18145 33.80495 66 ft 2 kts 76°
2026-05-05 15:44 27.18141 33.80479 66 ft 2 kts 76°
2026-05-05 15:44 27.18137 33.80462 66 ft 2 kts 76°
2026-05-05 15:45 27.18133 33.80447 66 ft 1 kts 88°
2026-05-05 15:45 27.18138 33.80435 66 ft 1 kts 148°
2026-05-05 15:45 27.18144 33.80431 66 ft 1 kts 167°
2026-05-05 15:45 27.18147 33.80431 66 ft 0 kts 166°
2026-05-05 15:47 27.18143 33.80432 66 ft 4 kts 166°
2026-05-05 15:47 27.18015 33.80469 66 ft 20 kts 165°
2026-05-05 15:47 27.17862 33.80518 66 ft 27 kts 164°
2026-05-05 15:48 27.17659 33.80580 66 ft 31 kts 166°
2026-05-05 15:48 27.17444 33.80643 66 ft 32 kts 165°
2026-05-05 15:48 27.17259 33.80698 66 ft 21 kts 166°
2026-05-05 15:48 27.17110 33.80731 66 ft 22 kts 197°
2026-05-05 15:49 27.17034 33.80585 66 ft 23 kts 252°
2026-05-05 15:49 27.16898 33.80550 66 ft 23 kts 165°
2026-05-05 15:49 27.16731 33.80601 66 ft 25 kts 165°
2026-05-05 15:49 27.16555 33.80655 66 ft 26 kts 166°
2026-05-05 15:50 27.16365 33.80709 66 ft 28 kts 165°
2026-05-05 15:50 27.16213 33.80754 66 ft 14 kts 168°
2026-05-05 15:50 27.16144 33.80681 67 ft 16 kts 258°
2026-05-05 15:50 27.16211 33.80584 67 ft 22 kts 339°
2026-05-05 15:51 27.16514 33.80496 66 ft 78 kts 345°
2026-05-05 15:51 27.17263 33.80278 69 ft 139 kts 349°
2026-05-05 15:51 27.18241 33.80006 544 ft 146 kts 344°
2026-05-05 15:51 27.19199 33.79633 1259 ft 149 kts 342°
2026-05-05 15:52 27.20190 33.79502 1835 ft 150 kts
2026-05-05 15:52 27.21161 33.80043 2297 ft 160 kts 27°
2026-05-05 15:52 27.22080 33.80750 2823 ft 162 kts 28°
2026-05-05 15:52 27.23011 33.81468 3309 ft 165 kts 28°
2026-05-05 15:53 27.24014 33.82238 3579 ft 183 kts 28°
2026-05-05 15:53 27.25117 33.83084 3858 ft 201 kts 29°
2026-05-05 15:53 27.26325 33.84012 4214 ft 218 kts 30°
2026-05-05 15:53 27.27635 33.85020 4549 ft 237 kts 30°
2026-05-05 15:54 27.29045 33.86106 4897 ft 254 kts 31°
2026-05-05 15:54 27.30563 33.87276 5224 ft 272 kts 31°
2026-05-05 15:54 27.32181 33.88525 5545 ft 290 kts 31°
2026-05-05 15:54 27.33891 33.89846 5869 ft 306 kts 31°
2026-05-05 15:55 27.35695 33.91241 6178 ft 322 kts 32°
2026-05-05 15:55 27.37588 33.92706 6453 ft 338 kts 32°
2026-05-05 15:55 27.39575 33.94246 6716 ft 352 kts 32°
2026-05-05 15:55 27.41625 33.95835 7164 ft 360 kts 32°
2026-05-05 15:56 27.43689 33.97440 7740 ft 363 kts 32°
2026-05-05 15:56 27.45781 33.99065 8246 ft 367 kts 31°
2026-05-05 15:56 27.47936 34.00622 8740 ft 369 kts 24°
2026-05-05 15:56 27.50269 34.01860 9215 ft 372 kts 21°
2026-05-05 15:57 27.52640 34.03063 9721 ft 376 kts 20°
2026-05-05 15:57 27.55036 34.04278 10222 ft 380 kts 20°
2026-05-05 15:57 27.57457 34.05505 10728 ft 384 kts 20°
2026-05-05 15:57 27.59904 34.06747 11270 ft 388 kts 20°
2026-05-05 15:58 27.62382 34.08004 11830 ft 392 kts 20°
2026-05-05 15:58 27.64887 34.09275 12388 ft 398 kts 20°
2026-05-05 15:58 27.67428 34.10566 13003 ft 402 kts 20°
2026-05-05 15:58 27.69998 34.11872 13634 ft 407 kts 20°
2026-05-05 15:59 27.72591 34.13190 14339 ft 411 kts 20°
2026-05-05 15:59 27.75207 34.14521 15106 ft 415 kts 19°
2026-05-05 15:59 27.77853 34.15868 15873 ft 420 kts 19°
2026-05-05 15:59 27.80529 34.17231 16639 ft 424 kts 19°
2026-05-05 16:00 27.83226 34.18605 17397 ft 428 kts 19°
2026-05-05 16:00 27.85949 34.19993 18142 ft 432 kts 19°
2026-05-05 16:00 27.88704 34.21398 18847 ft 437 kts 19°
2026-05-05 16:00 27.91497 34.22823 19485 ft 444 kts 19°
2026-05-05 16:01 27.94325 34.24266 20195 ft 449 kts 19°
2026-05-05 16:01 27.97183 34.25726 20864 ft 454 kts 19°
2026-05-05 16:01 28.00075 34.27205 21558 ft 458 kts 19°
2026-05-05 16:01 28.02991 34.28696 22209 ft 463 kts 19°
2026-05-05 16:02 28.05953 34.30212 22853 ft 468 kts 19°
2026-05-05 16:02 28.08931 34.31738 23487 ft 473 kts 19°
2026-05-05 16:02 28.11944 34.33282 24091 ft 478 kts 19°
2026-05-05 16:02 28.14981 34.34839 24706 ft 482 kts 19°
2026-05-05 16:03 28.18047 34.36413 25319 ft 486 kts 19°
2026-05-05 16:03 28.21155 34.38008 25852 ft 492 kts 18°
2026-05-05 16:03 28.24283 34.39615 26415 ft 496 kts 18°
2026-05-05 16:03 28.27438 34.41238 26981 ft 500 kts 18°
2026-05-05 16:04 28.30615 34.42872 27560 ft 503 kts 18°
2026-05-05 16:04 28.33814 34.44519 28065 ft 509 kts 18°
2026-05-05 16:04 28.35975 34.45633 28419 ft 512 kts 18°
2026-05-05 16:04 28.39234 34.47313 28963 ft 515 kts 18°
2026-05-05 16:05 28.42303 34.48895 29424 ft 519 kts 18°
2026-05-05 16:05 28.45613 34.50604 29911 ft 523 kts 18°
2026-05-05 16:05 28.48951 34.52329 30483 ft 525 kts 18°
2026-05-05 16:05 28.52231 34.54026 31100 ft 524 kts 18°
2026-05-05 16:06 28.55529 34.55734 31747 ft 523 kts 18°
2026-05-05 16:06 28.58857 34.57459 32374 ft 523 kts 18°
2026-05-05 16:06 28.62173 34.59178 32923 ft 523 kts 18°
2026-05-05 16:06 28.65481 34.60894 33510 ft 523 kts 18°
2026-05-05 16:07 28.68787 34.62611 34135 ft 522 kts 18°
2026-05-05 16:07 28.72088 34.64327 34749 ft 520 kts 18°
2026-05-05 16:07 28.75384 34.66041 35242 ft 521 kts 18°
2026-05-05 16:07 28.78710 34.67770 35573 ft 524 kts 18°
2026-05-05 16:08 28.82062 34.69515 35995 ft 525 kts 18°
2026-05-05 16:08 28.85413 34.71260 36447 ft 525 kts 18°
2026-05-05 16:08 28.87945 34.72580 36734 ft 526 kts 18°
2026-05-05 16:08 28.91288 34.74324 37084 ft 526 kts 18°
2026-05-05 16:09 28.94632 34.76070 37386 ft 528 kts 18°
2026-05-05 16:09 28.97984 34.77820 37689 ft 529 kts 18°
2026-05-05 16:09 29.01337 34.79573 38007 ft 529 kts 18°
2026-05-05 16:09 29.04693 34.81329 38303 ft 529 kts 18°
2026-05-05 16:10 29.08054 34.83088 38543 ft 531 kts 18°
2026-05-05 16:10 29.11424 34.84854 38761 ft 532 kts 18°
2026-05-05 16:10 29.14790 34.86618 38998 ft 533 kts 18°
2026-05-05 16:10 29.18162 34.88387 39225 ft 533 kts 18°
2026-05-05 16:11 29.21384 34.90079 39474 ft 533 kts 18°
2026-05-05 16:11 29.31469 34.95384 40198 ft 531 kts 18°
2026-05-05 16:12 29.34271 34.96859 40301 ft 532 kts 18°
2026-05-05 16:12 29.40996 35.00404 40698 ft 531 kts 18°
2026-05-05 16:13 29.50754 35.05557 41031 ft 532 kts 18°
2026-05-05 16:13 29.57607 35.09180 41035 ft 537 kts 18°
2026-05-05 16:14 29.71311 35.16442 41063 ft 546 kts 18°
2026-05-05 16:15 29.85161 35.23808 41068 ft 551 kts 18°
2026-05-05 16:16 29.99086 35.31239 41081 ft 552 kts 18°
2026-05-05 16:17 30.09515 35.36821 41057 ft 550 kts 18°
2026-05-05 16:18 30.19933 35.42408 41093 ft 550 kts 18°
2026-05-05 16:19 30.29279 35.47831 41074 ft 554 kts 21°
2026-05-05 16:19 30.38848 35.53641 41053 ft 552 kts 20°
2026-05-05 16:20 30.52235 35.61752 41060 ft 552 kts 20°
2026-05-05 16:22 30.69227 35.72061 41041 ft 552 kts 21°
2026-05-05 16:23 30.81226 35.79360 41047 ft 553 kts 21°
2026-05-05 16:23 30.91433 35.85562 41045 ft 552 kts 21°
2026-05-05 16:24 30.98227 35.89695 41041 ft 551 kts 21°
2026-05-05 16:25 31.08420 35.95909 41045 ft 549 kts 20°
2026-05-05 16:25 31.18576 36.02115 41038 ft 549 kts 21°
2026-05-05 16:26 31.31223 36.08763 41055 ft 546 kts 17°
2026-05-05 16:27 31.38169 36.12321 41065 ft 546 kts 16°
2026-05-05 16:27 31.44780 36.15284 41065 ft 539 kts
2026-05-05 16:28 31.51937 36.17832 41053 ft 538 kts
2026-05-05 16:28 31.58587 36.20192 41056 ft 539 kts
2026-05-05 16:29 31.65755 36.22739 41061 ft 538 kts
2026-05-05 16:29 31.72943 36.25298 41064 ft 538 kts
2026-05-05 16:30 31.80125 36.27859 41062 ft 539 kts
2026-05-05 16:30 31.87302 36.30422 41059 ft 539 kts
2026-05-05 16:31 31.94497 36.32996 41060 ft 540 kts
2026-05-05 16:31 32.01690 36.35573 41068 ft 540 kts
2026-05-05 16:32 32.08863 36.38148 41052 ft 538 kts
2026-05-05 16:32 32.16041 36.40729 41041 ft 538 kts
2026-05-05 16:33 32.23196 36.43306 41051 ft 537 kts
2026-05-05 16:33 32.30346 36.45885 41044 ft 538 kts
2026-05-05 16:34 32.35845 36.47871 41036 ft 538 kts
2026-05-05 16:34 32.42898 36.50421 41044 ft 539 kts
2026-05-05 16:35 32.50048 36.53013 41025 ft 538 kts
2026-05-05 16:35 32.57066 36.55559 41028 ft 539 kts
2026-05-05 16:36 32.64221 36.58161 41027 ft 537 kts
2026-05-05 16:36 32.71362 36.60762 41029 ft 537 kts
2026-05-05 16:37 32.78496 36.63364 41026 ft 537 kts
2026-05-05 16:37 32.85637 36.65973 40999 ft 537 kts 10°
2026-05-05 16:38 32.92771 36.68584 40995 ft 537 kts 10°
2026-05-05 16:38 32.99912 36.71202 40998 ft 537 kts 10°
2026-05-05 16:39 33.05619 36.73297 41003 ft 537 kts 10°
2026-05-05 16:39 33.12649 36.75882 41007 ft 538 kts 11°
2026-05-05 16:40 33.19656 36.78463 41009 ft 537 kts 10°
2026-05-05 16:40 33.26061 36.80826 41018 ft 537 kts 11°
2026-05-05 16:41 33.33196 36.83463 41013 ft 537 kts 11°
2026-05-05 16:41 33.40067 36.86006 41008 ft 537 kts 11°
2026-05-05 16:42 33.47207 36.88654 41010 ft 538 kts 10°
2026-05-05 16:42 33.53383 36.90947 41004 ft 538 kts 11°
2026-05-05 16:43 33.60524 36.93603 41016 ft 537 kts 11°
2026-05-05 16:43 33.67678 36.96269 41000 ft 538 kts 11°
2026-05-05 16:44 33.74817 36.98934 41006 ft 538 kts 11°
2026-05-05 16:44 33.81960 37.01604 40992 ft 539 kts 11°
2026-05-05 16:45 33.89114 37.04284 40990 ft 539 kts 11°
2026-05-05 16:45 33.96265 37.06967 40980 ft 538 kts 11°
2026-05-05 16:46 34.03409 37.09653 40988 ft 539 kts 11°
2026-05-05 16:46 34.10573 37.12350 40993 ft 539 kts 11°
2026-05-05 16:47 34.17727 37.15049 40986 ft 539 kts 11°
2026-05-05 16:47 34.24863 37.17747 40991 ft 537 kts 11°
2026-05-05 16:48 34.30543 37.19897 40991 ft 537 kts 11°
2026-05-05 16:48 34.37561 37.22558 40991 ft 536 kts 11°
2026-05-05 16:49 34.44505 37.25195 40992 ft 537 kts 11°
2026-05-05 16:49 34.51443 37.27834 40992 ft 537 kts 11°
2026-05-05 16:50 34.58563 37.30548 40990 ft 537 kts 11°
2026-05-05 16:50 34.65678 37.33264 40985 ft 536 kts 11°
2026-05-05 16:51 34.72792 37.35985 40985 ft 537 kts 11°
2026-05-05 16:51 34.79911 37.38713 40987 ft 537 kts 12°
2026-05-05 16:52 34.87029 37.41445 40983 ft 537 kts 12°
2026-05-05 16:52 34.94133 37.44178 40987 ft 536 kts 12°
2026-05-05 16:53 35.01230 37.46912 40985 ft 536 kts 12°
2026-05-05 16:53 35.08330 37.49652 40988 ft 536 kts 12°
2026-05-05 16:54 35.15423 37.52395 40983 ft 534 kts 12°
2026-05-05 16:54 35.22496 37.55136 40972 ft 534 kts 12°
2026-05-05 16:55 35.27911 37.57237 40978 ft 534 kts 12°
2026-05-05 16:55 35.34786 37.59908 40977 ft 534 kts 12°
2026-05-05 16:56 35.41856 37.62661 40983 ft 534 kts 12°
2026-05-05 16:56 35.48578 37.65283 40971 ft 533 kts 13°
2026-05-05 16:57 35.54622 37.67644 40962 ft 533 kts 13°
2026-05-05 16:57 35.61532 37.70349 40955 ft 533 kts 13°
2026-05-05 16:58 35.68611 37.73124 40957 ft 534 kts 13°
2026-05-05 16:58 35.75203 37.75713 40955 ft 534 kts 13°
2026-05-05 16:59 35.82266 37.78492 40953 ft 534 kts 13°
2026-05-05 16:59 35.88973 37.81136 40951 ft 534 kts 13°
2026-05-05 17:00 35.96060 37.83935 40941 ft 534 kts 13°
2026-05-05 17:00 36.03127 37.86731 40952 ft 534 kts 13°
2026-05-05 17:01 36.10186 37.89530 40952 ft 534 kts 14°
2026-05-05 17:01 36.17260 37.92339 40945 ft 533 kts 14°
2026-05-05 17:02 36.24360 37.95165 40947 ft 533 kts 14°
2026-05-05 17:02 36.30239 37.97508 40946 ft 533 kts 14°
2026-05-05 17:03 36.36119 37.99855 40946 ft 534 kts 14°
2026-05-05 17:03 36.42989 38.02603 40940 ft 534 kts 14°
2026-05-05 17:04 36.50077 38.05443 40936 ft 534 kts 14°
2026-05-05 17:04 36.56144 38.07879 40939 ft 534 kts 14°
2026-05-05 17:05 36.63226 38.10726 40935 ft 534 kts 14°
2026-05-05 17:05 36.70298 38.13576 40934 ft 534 kts 14°
2026-05-05 17:06 36.77367 38.16430 40937 ft 534 kts 14°
2026-05-05 17:06 36.84414 38.19280 40944 ft 533 kts 15°
2026-05-05 17:07 36.91466 38.22138 40945 ft 533 kts 15°
2026-05-05 17:07 36.98515 38.25000 40942 ft 534 kts 15°
2026-05-05 17:08 37.05577 38.27873 40945 ft 534 kts 15°
2026-05-05 17:08 37.12654 38.30758 40943 ft 534 kts 15°
2026-05-05 17:09 37.19715 38.33642 40948 ft 533 kts 15°
2026-05-05 17:09 37.26778 38.36533 40947 ft 533 kts 15°
2026-05-05 17:10 37.31815 38.38598 40946 ft 533 kts 15°
2026-05-05 17:10 37.38890 38.41504 40947 ft 532 kts 15°
2026-05-05 17:11 37.45933 38.44401 40946 ft 532 kts 15°
2026-05-05 17:11 37.52807 38.47235 40946 ft 533 kts 15°
2026-05-05 17:12 37.58590 38.49624 40949 ft 533 kts 15°
2026-05-05 17:12 37.65839 38.52623 40944 ft 533 kts 15°
2026-05-05 17:13 37.72885 38.55544 40941 ft 533 kts 15°
2026-05-05 17:13 37.79916 38.58466 40943 ft 532 kts 15°
2026-05-05 17:14 37.86968 38.61255 40938 ft 530 kts
2026-05-05 17:14 37.94226 38.62683 40937 ft 528 kts
2026-05-05 17:15 38.01489 38.63934 40929 ft 528 kts
2026-05-05 17:15 38.08768 38.65190 40932 ft 528 kts
2026-05-05 17:16 38.16039 38.66447 40931 ft 528 kts
2026-05-05 17:16 38.23322 38.67708 40934 ft 528 kts
2026-05-05 17:17 38.28151 38.68546 40934 ft 527 kts
2026-05-05 17:17 38.35169 38.69766 40944 ft 527 kts
2026-05-05 17:18 38.42434 38.71031 40946 ft 527 kts
2026-05-05 17:18 38.49125 38.72198 40945 ft 527 kts
2026-05-05 17:19 38.55742 38.73355 40947 ft 527 kts
2026-05-05 17:19 38.62750 38.74582 40946 ft 527 kts
2026-05-05 17:20 38.70052 38.75864 40945 ft 526 kts
2026-05-05 17:20 38.77307 38.77139 40943 ft 526 kts
2026-05-05 17:21 38.84587 38.78422 40952 ft 526 kts
2026-05-05 17:22 38.95138 38.80286 40962 ft 525 kts
2026-05-05 17:22 39.02364 38.81566 40972 ft 525 kts
2026-05-05 17:23 39.09595 38.82849 40957 ft 525 kts
2026-05-05 17:23 39.16834 38.84137 40949 ft 525 kts
2026-05-05 17:24 39.23669 38.85355 40937 ft 525 kts
2026-05-05 17:24 39.30932 38.86652 40931 ft 525 kts
2026-05-05 17:25 39.38173 38.87947 40933 ft 524 kts
2026-05-05 17:25 39.45071 38.89184 40935 ft 524 kts
2026-05-05 17:26 39.52271 38.90478 40935 ft 524 kts
2026-05-05 17:26 39.59476 38.91775 40941 ft 523 kts
2026-05-05 17:27 39.66667 38.93073 40958 ft 522 kts
2026-05-05 17:27 39.73856 38.94372 40973 ft 522 kts
2026-05-05 17:28 39.81045 38.95675 40983 ft 522 kts
2026-05-05 17:28 39.88239 38.96981 40983 ft 523 kts
2026-05-05 17:29 39.95435 38.98290 40973 ft 523 kts
2026-05-05 17:29 40.02639 38.99604 40962 ft 523 kts
2026-05-05 17:30 40.09829 39.00918 40968 ft 522 kts
2026-05-05 17:30 40.16920 39.02216 40975 ft 521 kts
2026-05-05 17:31 40.24101 39.03534 40982 ft 521 kts
2026-05-05 17:31 40.31273 39.04853 40977 ft 522 kts
2026-05-05 17:32 40.38454 39.06176 40975 ft 522 kts
2026-05-05 17:32 40.45633 39.07502 40975 ft 522 kts
2026-05-05 17:33 40.52819 39.08832 40972 ft 522 kts
2026-05-05 17:33 40.60002 39.10165 40979 ft 523 kts
2026-05-05 17:34 40.67191 39.11501 40989 ft 523 kts
2026-05-05 17:34 40.74383 39.12841 40996 ft 523 kts
2026-05-05 17:35 40.81569 39.14182 40996 ft 523 kts
2026-05-05 17:35 40.88756 39.15527 40996 ft 523 kts
2026-05-05 17:36 40.95944 39.16875 41000 ft 522 kts
2026-05-05 17:36 41.03126 39.18225 41013 ft 522 kts
2026-05-05 17:37 41.10272 39.19571 41022 ft 522 kts
2026-05-05 17:37 41.17501 39.20936 41026 ft 522 kts
2026-05-05 17:38 41.24679 39.22294 41032 ft 522 kts
2026-05-05 17:38 41.31858 39.23655 41035 ft 522 kts
2026-05-05 17:39 41.39032 39.25018 41031 ft 522 kts
2026-05-05 17:39 41.46204 39.26384 41033 ft 522 kts
2026-05-05 17:40 41.53380 39.27754 41029 ft 520 kts
2026-05-05 17:40 41.56913 39.28430 40646 ft 511 kts
2026-05-05 17:40 41.60426 39.29102 39642 ft 514 kts
2026-05-05 17:40 41.63965 39.29780 38501 ft 518 kts
2026-05-05 17:41 41.67519 39.30462 37625 ft 518 kts
2026-05-05 17:41 41.71080 39.31146 36781 ft 520 kts
2026-05-05 17:41 41.74657 39.31834 35748 ft 525 kts
2026-05-05 17:41 41.78274 39.32530 34672 ft 530 kts
2026-05-05 17:42 41.81916 39.33231 33606 ft 533 kts
2026-05-05 17:42 41.85575 39.33937 32668 ft 535 kts
2026-05-05 17:42 41.89228 39.34643 32089 ft 527 kts
2026-05-05 17:42 41.92812 39.35336 31695 ft 517 kts
2026-05-05 17:43 41.96330 39.36016 31347 ft 508 kts
2026-05-05 17:43 41.99795 39.36688 30921 ft 501 kts
2026-05-05 17:43 42.03216 39.37351 30342 ft 497 kts
2026-05-05 17:43 42.06621 39.38013 29656 ft 493 kts
2026-05-05 17:44 42.09990 39.38668 28998 ft 489 kts
2026-05-05 17:44 42.13314 39.39315 28369 ft 484 kts
2026-05-05 17:44 42.16634 39.39829 27697 ft 480 kts
2026-05-05 17:44 42.19966 39.39690 27019 ft 477 kts 354°
2026-05-05 17:45 42.23215 39.38977 26378 ft 472 kts 349°
2026-05-05 17:45 42.25839 39.38298 25879 ft 468 kts 349°
2026-05-05 17:45 42.29013 39.37465 25282 ft 462 kts 349°
2026-05-05 17:45 42.32130 39.36643 24847 ft 453 kts 349°
2026-05-05 17:46 42.35206 39.35829 24094 ft 452 kts 349°
2026-05-05 17:46 42.38276 39.35015 23294 ft 451 kts 349°
2026-05-05 17:46 42.41345 39.34199 22624 ft 446 kts 349°
2026-05-05 17:46 42.44369 39.33393 22016 ft 441 kts 349°
2026-05-05 17:47 42.47353 39.32597 21402 ft 436 kts 349°
2026-05-05 17:47 42.50306 39.31809 20774 ft 432 kts 349°
2026-05-05 17:47 42.53232 39.31026 20136 ft 428 kts 349°
2026-05-05 17:47 42.56130 39.30250 19515 ft 423 kts 349°
2026-05-05 17:48 42.59002 39.29481 18900 ft 419 kts 349°
2026-05-05 17:48 42.61843 39.28719 18270 ft 415 kts 349°
2026-05-05 17:48 42.64664 39.27961 17650 ft 412 kts 349°
2026-05-05 17:48 42.67467 39.27277 17037 ft 407 kts 354°
2026-05-05 17:49 42.70270 39.27147 16327 ft 401 kts
2026-05-05 17:49 42.73035 39.27286 15560 ft 396 kts
2026-05-05 17:49 42.75763 39.27441 14834 ft 391 kts
2026-05-05 17:49 42.78469 39.27595 14046 ft 388 kts
2026-05-05 17:50 42.81155 39.27746 13290 ft 384 kts
2026-05-05 17:50 42.83800 39.27895 12633 ft 378 kts
2026-05-05 17:50 42.86369 39.28039 12304 ft 362 kts
2026-05-05 17:50 42.88819 39.28176 12004 ft 344 kts
2026-05-05 17:51 42.91149 39.28309 11748 ft 326 kts
2026-05-05 17:51 42.93353 39.28435 11581 ft 308 kts
2026-05-05 17:51 42.95432 39.28552 11564 ft 291 kts
2026-05-05 17:51 42.97426 39.28660 11394 ft 285 kts
2026-05-05 17:52 42.99384 39.28768 11270 ft 275 kts
2026-05-05 17:52 43.01262 39.28873 11236 ft 264 kts
2026-05-05 17:52 43.03075 39.28975 11051 ft 259 kts
2026-05-05 17:52 43.04881 39.29078 10782 ft 259 kts
2026-05-05 17:53 43.06678 39.29179 10540 ft 257 kts
2026-05-05 17:53 43.08459 39.29279 10291 ft 255 kts
2026-05-05 17:53 43.10227 39.29379 10053 ft 253 kts
2026-05-05 17:53 43.11984 39.29481 9805 ft 251 kts
2026-05-05 17:54 43.13540 39.30018 9524 ft 247 kts 28°
2026-05-05 17:54 43.14858 39.31461 9212 ft 243 kts 53°
2026-05-05 17:54 43.15641 39.33485 8915 ft 241 kts 69°
2026-05-05 17:54 43.16125 39.35314 8768 ft 232 kts 71°
2026-05-05 17:55 43.16617 39.37343 8743 ft 216 kts 72°
2026-05-05 17:55 43.17065 39.39241 8710 ft 202 kts 72°
2026-05-05 17:55 43.17478 39.41004 8680 ft 188 kts 72°
2026-05-05 17:55 43.17808 39.42412 8640 ft 176 kts 72°
2026-05-05 17:56 43.18168 39.43949 8578 ft 164 kts 72°
2026-05-05 17:56 43.18512 39.45421 8379 ft 161 kts 72°
2026-05-05 17:56 43.18853 39.46881 8142 ft 161 kts 72°
2026-05-05 17:56 43.19194 39.48340 7885 ft 161 kts 72°
2026-05-05 17:57 43.19533 39.49793 7660 ft 160 kts 72°
2026-05-05 17:57 43.19871 39.51243 7423 ft 160 kts 71°
2026-05-05 17:57 43.20209 39.52690 7200 ft 159 kts 71°
2026-05-05 17:57 43.20544 39.54130 6986 ft 158 kts 71°
2026-05-05 17:58 43.20890 39.55614 6751 ft 168 kts 71°
2026-05-05 17:58 43.21245 39.57139 6596 ft 168 kts 71°
2026-05-05 17:58 43.21603 39.58679 6451 ft 171 kts 71°
2026-05-05 17:58 43.21964 39.60232 6259 ft 171 kts 71°
2026-05-05 17:59 43.22333 39.61820 6065 ft 180 kts 71°
2026-05-05 17:59 43.22725 39.63507 5863 ft 189 kts 71°
2026-05-05 17:59 43.23125 39.65235 5643 ft 190 kts 72°
2026-05-05 17:59 43.23525 39.66962 5445 ft 189 kts 72°
2026-05-05 18:00 43.23923 39.68682 5245 ft 190 kts 71°
2026-05-05 18:00 43.24334 39.70457 5033 ft 198 kts 71°
2026-05-05 18:00 43.24751 39.72259 4800 ft 198 kts 71°
2026-05-05 18:00 43.25166 39.74055 4581 ft 198 kts 71°
2026-05-05 18:01 43.25579 39.75847 4355 ft 197 kts 71°
2026-05-05 18:01 43.25991 39.77633 4130 ft 196 kts 71°
2026-05-05 18:01 43.26401 39.79412 3905 ft 196 kts 71°
2026-05-05 18:01 43.26820 39.81177 3674 ft 194 kts 68°
2026-05-05 18:02 43.27580 39.82648 3433 ft 189 kts 37°
2026-05-05 18:02 43.28704 39.83544 3197 ft 184 kts 27°
2026-05-05 18:02 43.29835 39.84331 2999 ft 180 kts 27°
2026-05-05 18:02 43.30931 39.85114 2806 ft 175 kts 28°
2026-05-05 18:03 43.31993 39.85918 2579 ft 173 kts 28°
2026-05-05 18:03 43.33047 39.86710 2355 ft 172 kts 28°
2026-05-05 18:03 43.34095 39.87497 2117 ft 172 kts 27°
2026-05-05 18:03 43.35141 39.88265 1891 ft 167 kts 26°
2026-05-05 18:04 43.36124 39.88988 1660 ft 156 kts 27°
2026-05-05 18:04 43.37059 39.89697 1434 ft 151 kts 27°
2026-05-05 18:04 43.37974 39.90377 1221 ft 147 kts 28°
2026-05-05 18:04 43.38850 39.91040 1018 ft 140 kts 27°
2026-05-05 18:05 43.39699 39.91660 850 ft 137 kts 27°
2026-05-05 18:05 43.40528 39.92301 675 ft 136 kts 27°
2026-05-05 18:05 43.41369 39.92911 497 ft 136 kts 27°
2026-05-05 18:05 43.42190 39.93540 347 ft 135 kts 26°
2026-05-05 18:06 43.43022 39.94149 168 ft 136 kts 27°
2026-05-05 18:06 43.43301 39.94360 107 ft 137 kts 27°
2026-05-05 18:06 43.44475 39.95242 70 ft 76 kts 28°
2026-05-05 18:06 43.44792 39.95483 76 ft 39 kts 28°
2026-05-05 18:07 43.44917 39.95574 77 ft 12 kts 19°
2026-05-05 18:07 43.44991 39.95556 77 ft 6 kts 337°
2026-05-05 18:07 43.45038 39.95520 78 ft 9 kts 313°
2026-05-05 18:07 43.45043 39.95428 79 ft 11 kts 251°
2026-05-05 18:08 43.45015 39.95338 77 ft 12 kts 246°
2026-05-05 18:08 43.44967 39.95200 69 ft 20 kts 244°
2026-05-05 18:08 43.44897 39.95005 61 ft 19 kts 244°
2026-05-05 18:08 43.44838 39.94834 60 ft 12 kts 245°
2026-05-05 18:09 43.44801 39.94724 58 ft 6 kts 245°
2026-05-05 18:09 43.44805 39.94645 57 ft 10 kts 318°
2026-05-05 18:09 43.44854 39.94609 57 ft 7 kts 323°
2026-05-05 18:09 43.44884 39.94553 58 ft 2 kts 298°
2026-05-05 18:10 43.44890 39.94536 59 ft 1 kts 296°
2026-05-05 18:10 43.44892 39.94531 59 ft 0 kts 295°
2026-05-05 18:10 43.44892 39.94529 59 ft 0 kts 295°